NI4CE-14 Weather Reports


Display with metric or nautical units.
time (UTC)temp
F
wind
direction
speed
MPH
gust
MPH
rain 1hr
in
rain 24hr
in
rain mn
in
humidity
%
barometer
mb
20260906152851 90 329 4.0 8.0 0.00 0.00 0.00 100 1012.0
20260906152351 90 358 6.0 9.0 0.00 0.00 0.00 100 1012.0
20260906152129 90 28 4.0 9.0 0.00 0.00 0.00 100 1012.0
20260906151851 90 28 4.0 9.0 0.00 0.00 0.00 100 1012.0
20260906151351 91 296 1.0 10.0 0.00 0.00 0.00 100 1011.9
20260906150851 90 337 7.0 15.0 0.00 0.00 0.00 100 1011.8
20260906150717 90 330 11.0 15.0 0.00 0.00 0.00 100 1012.0
20260906150351 90 330 11.0 15.0 0.00 0.00 0.00 100 1012.0
20260906150104 90 334 8.0 17.0 0.00 0.00 0.00 100 1012.1
20260906145851 90 334 8.0 17.0 0.00 0.00 0.00 100 1012.1
20260906145648 91 352 9.0 15.0 0.00 0.00 0.00 100 1012.2
20260906145352 91 352 9.0 15.0 0.00 0.00 0.00 100 1012.2
20260906145204 92 327 9.0 9.0 0.00 0.00 0.00 100 1011.9
20260906144851 92 327 9.0 9.0 0.00 0.00 0.00 100 1011.9
20260906144351 92 8 6.0 12.0 0.00 0.00 0.00 100 1012.0
20260906144239 92 5 4.0 9.0 0.00 0.00 0.00 100 1012.1
20260906143851 92 5 4.0 9.0 0.00 0.00 0.00 100 1012.1
20260906143351 91 357 5.0 9.0 0.00 0.00 0.00 100 1012.0
20260906143235 91 0 4.0 10.0 0.00 0.00 0.00 100 1011.9
20260906142851 91 0 4.0 10.0 0.00 0.00 0.00 100 1011.9
20260906142639 91 358 7.0 7.0 0.00 0.00 0.00 100 1011.8
20260906142352 91 358 7.0 7.0 0.00 0.00 0.00 100 1011.8
20260906142202 92 33 4.0 8.0 0.00 0.00 0.00 100 1011.8
20260906141851 92 33 4.0 8.0 0.00 0.00 0.00 100 1011.8
20260906141714 92 9 6.0 9.0 0.00 0.00 0.00 100 1011.7
20260906141351 92 9 6.0 9.0 0.00 0.00 0.00 100 1011.7
20260906141025 91 358 5.0 7.0 0.00 0.00 0.00 100 1011.8
20260906140851 92 300 1.0 5.0 0.00 0.00 0.00 100 1011.7
20260906140351 91 358 5.0 7.0 0.00 0.00 0.00 100 1011.8
20260906135851 91 2 4.0 7.0 0.00 0.00 0.00 100 1011.7
20260906135413 91 357 5.0 9.0 0.00 0.00 0.00 100 1011.9
20260906135351 91 347 0.0 6.0 0.00 0.00 0.00 100 1011.6
20260906134851 91 357 5.0 9.0 0.00 0.00 0.00 100 1011.9
20260906134352 91 196 0.0 7.0 0.00 0.00 0.00 100 1011.1
20260906133851 91 347 3.0 5.0 0.00 0.00 0.00 100 1011.9
20260906133351 90 358 4.0 5.0 0.00 0.00 0.00 100 1011.9
20260906132851 90 8 4.0 6.0 0.00 0.00 0.00 100 1011.9
20260906132351 89 33 3.0 7.0 0.00 0.00 0.00 100 1011.8
20260906131851 88 344 4.0 5.0 0.00 0.00 0.00 100 1011.8
20260906131611 88 180 0.0 0.0 0.00 0.00 0.00 100 1011.7
20260906131351 88 180 0.0 0.0 0.00 0.00 0.00 100 1011.7
20260906130851 87 180 0.0 0.0 0.00 0.00 0.00 100 1011.8
20260906130352 87 180 0.0 0.0 0.00 0.00 0.00 100 1011.8
20260906130146 88 180 0.0 0.0 0.00 0.00 0.00 100 1011.7
20260906125851 88 180 0.0 0.0 0.00 0.00 0.00 100 1011.7
20260906125615 87 180 0.0 0.0 0.00 0.00 0.00 100 1011.7
20260906125351 87 180 0.0 0.0 0.00 0.00 0.00 100 1011.7
20260906125112 87 180 0.0 0.0 0.00 0.00 0.00 100 1011.6
20260906124851 87 180 0.0 0.0 0.00 0.00 0.00 100 1011.6
20260906124351 87 180 0.0 0.0 0.00 0.00 0.00 100 1011.7
20260906124217 87 180 0.0 0.0 0.00 0.00 0.00 100 1011.7
20260906123851 87 180 0.0 0.0 0.00 0.00 0.00 100 1011.7
20260906123351 87 180 0.0 0.0 0.00 0.00 0.00 100 1011.7
20260906122851 86 180 0.0 0.0 0.00 0.00 0.00 100 1011.6
20260906122351 86 180 0.0 0.0 0.00 0.00 0.00 100 1011.6
20260906121851 86 180 0.0 0.0 0.00 0.00 0.00 100 1011.5
20260906121653 86 180 0.0 0.0 0.00 0.00 0.00 100 1011.5
20260906121351 86 180 0.0 0.0 0.00 0.00 0.00 100 1011.5
20260906120851 85 180 0.0 0.0 0.00 0.00 0.00 100 1011.5
20260906120351 85 180 0.0 0.0 0.00 0.00 0.00 100 1011.4
20260906115851 85 180 0.0 0.0 0.00 0.00 0.00 100 1011.2
20260906115351 85 180 0.0 0.0 0.00 0.00 0.00 100 1011.1
20260906115123 85 180 0.0 0.0 0.00 0.00 0.00 100 1011.1
20260906114851 85 180 0.0 0.0 0.00 0.00 0.00 100 1011.1
20260906114713 85 180 0.0 0.0 0.00 0.00 0.00 100 1011.1
20260906114351 85 180 0.0 0.0 0.00 0.00 0.00 100 1011.1
20260906113852 85 180 0.0 0.0 0.00 0.00 0.00 100 1011.0
20260906113352 85 180 0.0 0.0 0.00 0.00 0.00 100 1011.0
20260906112851 84 180 0.0 0.0 0.00 0.00 0.00 100 1011.0
20260906112352 85 180 0.0 0.0 0.00 0.00 0.00 100 1010.9
20260906111851 85 180 0.0 0.0 0.00 0.00 0.00 100 1010.8
20260906111723 84 180 0.0 0.0 0.00 0.00 0.00 100 1010.8
20260906111352 84 180 0.0 0.0 0.00 0.00 0.00 100 1010.8
20260906110852 85 180 0.0 0.0 0.00 0.00 0.00 100 1010.8
20260906110609 85 180 0.0 1.0 0.00 0.00 0.00 100 1010.8
20260906110352 85 180 0.0 1.0 0.00 0.00 0.00 100 1010.8
20260906110109 85 180 0.0 7.0 0.00 0.00 0.00 100 1010.8
20260906105851 85 180 0.0 7.0 0.00 0.00 0.00 100 1010.8
20260906105352 85 203 0.0 7.0 0.00 0.00 0.00 100 1010.8
20260906104852 86 198 2.0 6.0 0.00 0.00 0.00 100 1010.9
20260906104352 87 227 0.0 8.0 0.00 0.00 0.00 100 1010.8
20260906104115 88 291 0.0 4.0 0.00 0.00 0.00 100 1010.7
20260906103852 88 291 0.0 4.0 0.00 0.00 0.00 100 1010.7
20260906103352 88 227 0.0 6.0 0.00 0.00 0.00 100 1010.5
20260906103217 88 322 0.0 0.0 0.00 0.00 0.00 100 1010.4
20260906102852 88 322 0.0 0.0 0.00 0.00 0.00 100 1010.4
20260906102352 88 322 0.0 0.0 0.00 0.00 0.00 100 1010.2
20260906102145 88 322 0.0 0.0 0.00 0.00 0.00 100 1010.2
20260906101852 88 322 0.0 0.0 0.00 0.00 0.00 100 1010.2
20260906101352 88 322 0.0 0.0 0.00 0.00 0.00 100 1010.0
20260906100852 88 322 0.0 0.0 0.00 0.00 0.00 100 1010.0
20260906100352 88 322 0.0 0.0 0.00 0.00 0.00 100 1010.0
20260906095852 88 322 0.0 0.0 0.00 0.00 0.00 100 1010.0
20260906095352 88 322 0.0 0.0 0.00 0.00 0.00 100 1010.0
20260906095116 88 322 0.0 0.0 0.00 0.00 0.00 100 1009.9
20260906095027 95 7 3.0 8.0 0.00 0.00 0.00 100 1012.5
20260906095023 95 302 3.0 7.0 0.00 0.00 0.00 100 1012.6
20260906094852 88 322 0.0 0.0 0.00 0.00 0.00 100 1009.9
20260906094352 88 322 0.0 0.0 0.00 0.00 0.00 100 1009.8
20260906093852 88 322 0.0 0.0 0.00 0.00 0.00 100 1009.8
20260906093352 89 322 0.0 0.0 0.00 0.00 0.00 100 1009.8
20260906093149 88 322 0.0 0.0 0.00 0.00 0.00 100 1009.6
20260906092852 88 322 0.0 0.0 0.00 0.00 0.00 100 1009.6
20260906092620 88 322 0.0 0.0 0.00 0.00 0.00 100 1009.6
20260906092352 88 322 0.0 0.0 0.00 0.00 0.00 100 1009.6
20260906092113 88 322 0.0 1.0 0.00 0.00 0.00 100 1009.6
20260906091852 88 322 0.0 1.0 0.00 0.00 0.00 100 1009.6
20260906091352 88 289 0.0 0.0 0.00 0.00 0.00 100 1009.5
20260906091109 88 289 0.0 1.0 0.00 0.00 0.00 100 1009.4
20260906090852 88 289 0.0 1.0 0.00 0.00 0.00 100 1009.4
20260906090547 88 289 0.0 2.0 0.00 0.00 0.00 100 1009.4
20260906090352 88 289 0.0 2.0 0.00 0.00 0.00 100 1009.4
20260906085852 88 330 0.0 0.0 0.00 0.00 0.00 100 1009.4
20260906085650 88 330 0.0 0.0 0.00 0.00 0.00 100 1009.3
20260906085352 88 330 0.0 0.0 0.00 0.00 0.00 100 1009.3
20260906085132 87 330 0.0 0.0 0.00 0.00 0.00 100 1009.3
20260906084852 87 330 0.0 0.0 0.00 0.00 0.00 100 1009.3
20260906084650 87 330 0.0 0.0 0.00 0.00 0.00 100 1009.3
20260906084352 87 330 0.0 0.0 0.00 0.00 0.00 100 1009.3
20260906083852 87 330 0.0 0.0 0.00 0.00 0.00 100 1009.3
20260906083612 87 330 0.0 0.0 0.00 0.00 0.00 100 1009.3
20260906083352 87 330 0.0 0.0 0.00 0.00 0.00 100 1009.3
20260906082852 87 330 0.0 0.0 0.00 0.00 0.00 100 1009.4
20260906082631 87 330 0.0 0.0 0.00 0.00 0.00 100 1009.4
20260906082352 87 330 0.0 0.0 0.00 0.00 0.00 100 1009.4
20260906082118 87 330 0.0 0.0 0.00 0.00 0.00 100 1009.3
20260906081852 87 330 0.0 0.0 0.00 0.00 0.00 100 1009.3
20260906081352 87 330 0.0 0.0 0.00 0.00 0.00 100 1009.3
20260906080852 87 330 0.0 0.0 0.00 0.00 0.00 100 1009.1
20260906080352 87 330 0.0 0.0 0.00 0.00 0.00 100 1009.2
20260906080051 87 330 0.0 0.0 0.00 0.00 0.00 100 1009.3
20260906075852 87 330 0.0 0.0 0.00 0.00 0.00 100 1009.3
20260906075550 87 330 0.0 0.0 0.00 0.00 0.00 100 1009.3
20260906075352 87 330 0.0 0.0 0.00 0.00 0.00 100 1009.3
20260906074852 87 330 0.0 0.0 0.00 0.00 0.00 100 1009.3
20260906074559 87 330 0.0 0.0 0.00 0.00 0.00 100 1009.4
20260906074352 87 330 0.0 0.0 0.00 0.00 0.00 100 1009.4
20260906073852 87 330 0.0 0.0 0.00 0.00 0.00 100 1009.4
20260906073637 87 330 0.0 0.0 0.00 0.00 0.00 100 1009.4
20260906073352 87 330 0.0 0.0 0.00 0.00 0.00 100 1009.4
20260906073040 87 330 0.0 0.0 0.00 0.00 0.00 100 1009.4
20260906072926 87 330 0.0 0.0 0.00 0.00 0.00 100 1009.4
20260906072852 87 330 0.0 0.0 0.00 0.00 0.00 100 1009.4
20260906072352 87 330 0.0 0.0 0.00 0.00 0.00 100 1009.5
20260906071852 87 330 0.0 0.0 0.00 0.00 0.00 100 1009.6
20260906071352 87 330 0.0 0.0 0.00 0.00 0.00 100 1009.6
20260906070852 87 330 0.0 0.0 0.00 0.00 0.00 100 1009.6
20260906070622 87 330 0.0 0.0 0.00 0.00 0.00 100 1009.7
20260906070352 87 330 0.0 0.0 0.00 0.00 0.00 100 1009.7
20260906070056 87 330 0.0 0.0 0.00 0.00 0.00 100 1009.7
20260906065852 87 330 0.0 0.0 0.00 0.00 0.00 100 1009.7
20260906065352 87 330 0.0 0.0 0.00 0.00 0.00 100 1009.7
20260906064852 87 330 0.0 0.0 0.00 0.00 0.00 100 1009.8
20260906064624 87 330 0.0 0.0 0.00 0.00 0.00 100 1010.0
20260906064352 87 330 0.0 0.0 0.00 0.00 0.00 100 1010.0
20260906063852 87 330 0.0 0.0 0.00 0.00 0.00 100 1010.0
20260906063352 87 330 0.0 0.0 0.00 0.00 0.00 100 1010.2
20260906062852 88 330 0.0 0.0 0.00 0.00 0.00 100 1010.3
20260906062610 88 330 0.0 0.0 0.00 0.00 0.00 100 1010.4
20260906062352 88 330 0.0 0.0 0.00 0.00 0.00 100 1010.4
20260906061852 88 330 0.0 0.0 0.00 0.00 0.00 100 1010.6
20260906061615 87 330 0.0 0.0 0.00 0.00 0.00 100 1010.7
20260906061352 87 330 0.0 0.0 0.00 0.00 0.00 100 1010.7
20260906060852 87 330 0.0 0.0 0.00 0.00 0.00 100 1010.8
20260906060623 87 330 0.0 0.0 0.00 0.00 0.00 100 1010.7
20260906060352 87 330 0.0 0.0 0.00 0.00 0.00 100 1010.7
20260906060046 87 330 0.0 0.0 0.00 0.00 0.00 100 1010.8
20260906055852 87 330 0.0 0.0 0.00 0.00 0.00 100 1010.8
20260906055352 88 330 0.0 0.0 0.00 0.00 0.00 100 1010.9
20260906055050 88 330 0.0 0.0 0.00 0.00 0.00 100 1010.9
20260906054852 88 330 0.0 0.0 0.00 0.00 0.00 100 1010.9
20260906054614 88 330 0.0 0.0 0.00 0.00 0.00 100 1011.0
20260906054352 88 330 0.0 0.0 0.00 0.00 0.00 100 1011.0
20260906053852 88 330 0.0 0.0 0.00 0.00 0.00 100 1010.9
20260906053534 88 330 0.0 0.0 0.00 0.00 0.00 100 1011.0
20260906053352 88 330 0.0 0.0 0.00 0.00 0.00 100 1011.0
20260906052852 88 330 0.0 0.0 0.00 0.00 0.00 100 1011.1
20260906052352 88 330 0.0 0.0 0.00 0.00 0.00 100 1011.3
20260906051852 88 330 0.0 0.0 0.00 0.00 0.00 100 1011.3
20260906051524 88 330 0.0 0.0 0.00 0.00 0.00 100 1011.3
20260906051352 88 330 0.0 0.0 0.00 0.00 0.00 100 1011.3
20260906050852 88 330 0.0 0.0 0.00 0.00 0.00 100 1011.2
20260906050543 88 330 0.0 0.0 0.00 0.00 0.00 100 1011.3
20260906050352 88 330 0.0 0.0 0.00 0.00 0.00 100 1011.3
20260906045852 88 330 0.0 0.0 0.00 0.00 0.00 100 1011.3
20260906045557 88 330 0.0 0.0 0.00 0.00 0.00 100 1011.4
20260906045352 88 330 0.0 0.0 0.00 0.00 0.00 100 1011.4
20260906044852 88 330 0.0 0.0 0.00 0.00 0.00 100 1011.4
20260906044352 88 330 0.0 0.0 0.00 0.00 0.00 100 1011.4
20260906043852 88 330 0.0 0.0 0.00 0.00 0.00 100 1011.4
20260906043603 88 330 0.0 0.0 0.00 0.00 0.00 100 1011.1
20260906043352 88 330 0.0 0.0 0.00 0.00 0.00 100 1011.1
20260906042852 88 330 0.0 0.0 0.00 0.00 0.00 100 1011.3
20260906042524 88 330 0.0 0.0 0.00 0.00 0.00 100 1011.4
20260906042352 88 330 0.0 0.0 0.00 0.00 0.00 100 1011.4
20260906041852 88 330 0.0 0.0 0.00 0.00 0.00 100 1011.5
20260906041647 88 330 0.0 0.0 0.00 0.00 0.00 100 1011.5
20260906041352 88 330 0.0 0.0 0.00 0.00 0.00 100 1011.5
20260906040852 88 330 0.0 0.0 0.00 0.00 0.00 100 1011.4
20260906040634 88 330 0.0 0.0 0.00 0.00 0.00 100 1011.4
20260906040352 88 330 0.0 0.0 0.00 0.00 0.00 100 1011.4
20260906035852 88 330 0.0 0.0 0.00 0.00 0.00 100 1011.4
20260906035352 88 330 0.0 0.0 0.00 0.00 0.00 100 1011.5
20260906035137 88 330 0.0 0.0 0.00 0.00 0.00 100 1011.6
20260906034852 88 330 0.0 0.0 0.00 0.00 0.00 100 1011.6
20260906034548 89 330 0.0 0.0 0.00 0.00 0.00 100 1011.5
20260906034352 89 330 0.0 0.0 0.00 0.00 0.00 100 1011.5
20260906034109 89 330 0.0 0.0 0.00 0.00 0.00 100 1011.5
20260906033852 89 330 0.0 0.0 0.00 0.00 0.00 100 1011.5
20260906033612 89 330 0.0 0.0 0.00 0.00 0.00 100 1011.4
20260906033352 89 330 0.0 0.0 0.00 0.00 0.00 100 1011.4
20260906033053 89 330 0.0 0.0 0.00 0.00 0.00 100 1011.4
20260906032852 89 330 0.0 0.0 0.00 0.00 0.00 100 1011.4
20260906032352 89 330 0.0 0.0 0.00 0.00 0.00 100 1011.4
20260906032017 89 330 0.0 0.0 0.00 0.00 0.00 100 1011.3
20260906031852 89 330 0.0 0.0 0.00 0.00 0.00 100 1011.3
20260906031554 89 330 0.0 0.0 0.00 0.00 0.00 100 1011.3
20260906031352 89 330 0.0 0.0 0.00 0.00 0.00 100 1011.3
20260906031126 89 330 0.0 0.0 0.00 0.00 0.00 100 1011.3
20260906030852 89 330 0.0 0.0 0.00 0.00 0.00 100 1011.3
20260906030352 89 330 0.0 0.0 0.00 0.00 0.00 100 1011.5
20260906030039 89 330 0.0 0.0 0.00 0.00 0.00 100 1011.4
20260906025852 89 330 0.0 0.0 0.00 0.00 0.00 100 1011.4
20260906025552 89 330 0.0 0.0 0.00 0.00 0.00 100 1011.5
20260906025352 89 330 0.0 0.0 0.00 0.00 0.00 100 1011.5
20260906024852 89 330 0.0 0.0 0.00 0.00 0.00 100 1011.5
20260906024352 89 330 0.0 0.0 0.00 0.00 0.00 100 1011.4
20260906023852 89 330 0.0 0.0 0.00 0.00 0.00 100 1011.5
20260906023352 89 330 0.0 0.0 0.00 0.00 0.00 100 1011.4
20260906022852 89 330 0.0 0.0 0.00 0.00 0.00 100 1011.3
20260906022352 89 330 0.0 0.0 0.00 0.00 0.00 100 1011.3
20260906022024 89 330 0.0 0.0 0.00 0.00 0.00 100 1011.3
20260906021852 89 330 0.0 0.0 0.00 0.00 0.00 100 1011.3
20260906021523 90 330 0.0 0.0 0.00 0.00 0.00 100 1011.2
20260906021352 89 330 0.0 0.0 0.00 0.00 0.00 100 1011.3
20260906021104 90 330 0.0 0.0 0.00 0.00 0.00 100 1011.2
20260906020852 90 330 0.0 0.0 0.00 0.00 0.00 100 1011.2
20260906020352 90 330 0.0 0.0 0.00 0.00 0.00 100 1011.2
20260906020037 90 330 0.0 0.0 0.00 0.00 0.00 100 1011.2
20260906015852 90 330 0.0 0.0 0.00 0.00 0.00 100 1011.2
20260906015555 90 330 0.0 0.0 0.00 0.00 0.00 100 1011.3
20260906015352 90 330 0.0 0.0 0.00 0.00 0.00 100 1011.3
20260906014852 90 330 0.0 0.0 0.00 0.00 0.00 100 1011.2
20260906014352 90 330 0.0 0.0 0.00 0.00 0.00 100 1011.1
20260906014146 89 330 0.0 0.0 0.00 0.00 0.00 100 1010.8
20260906013852 89 330 0.0 0.0 0.00 0.00 0.00 100 1010.8
20260906013629 90 330 0.0 0.0 0.00 0.00 0.00 100 1010.5
20260906013352 90 330 0.0 0.0 0.00 0.00 0.00 100 1010.5
20260906012852 90 330 0.0 0.0 0.00 0.00 0.00 100 1010.7
20260906012626 90 330 0.0 0.0 0.00 0.00 0.00 100 1010.7
20260906012352 90 330 0.0 0.0 0.00 0.00 0.00 100 1010.7
20260906011852 90 330 0.0 0.0 0.00 0.00 0.00 100 1010.7
20260906011613 90 330 0.0 0.0 0.00 0.00 0.00 100 1010.7
20260906011352 90 330 0.0 0.0 0.00 0.00 0.00 100 1010.7
20260906011141 90 330 0.0 0.0 0.00 0.00 0.00 100 1010.7
20260906010852 90 330 0.0 0.0 0.00 0.00 0.00 100 1010.7
20260906010352 90 330 0.0 0.0 0.00 0.00 0.00 100 1009.4
20260906010103 90 330 0.0 0.0 0.00 0.00 0.00 100 1009.4
20260906005852 90 330 0.0 0.0 0.00 0.00 0.00 100 1009.4
20260906005550 90 330 0.0 3.0 0.00 0.00 0.00 100 1009.5
20260906005352 90 330 0.0 3.0 0.00 0.00 0.00 100 1009.5
20260906005110 90 331 0.0 3.0 0.00 0.00 0.00 100 1009.4
20260906004852 90 331 0.0 3.0 0.00 0.00 0.00 100 1009.4
20260906004632 90 326 3.0 3.0 0.00 0.00 0.00 100 1009.7
20260906004352 90 326 3.0 3.0 0.00 0.00 0.00 100 1009.7
20260906003852 90 331 0.0 6.0 0.00 0.00 0.00 100 1009.6
20260906003352 90 343 0.0 4.0 0.00 0.00 0.00 100 1010.1
20260906002853 91 358 3.0 4.0 0.00 0.00 0.00 100 1010.1
20260906002353 91 340 3.0 5.0 0.00 0.00 0.00 100 1010.7
20260906001852 90 15 4.0 8.0 0.00 0.00 0.00 100 1010.8
20260906001630 91 350 1.0 1.0 0.00 0.00 0.00 100 1010.7
20260906001352 91 350 1.0 1.0 0.00 0.00 0.00 100 1010.7
20260906001048 91 28 0.0 4.0 0.00 0.00 0.00 100 1010.6
20260906000853 91 28 0.0 4.0 0.00 0.00 0.00 100 1010.6
20260906000355 91 336 2.0 6.0 0.00 0.00 0.00 100 1010.7
20260906000114 91 9 1.0 5.0 0.00 0.00 0.00 100 1010.8
20260905235852 91 9 1.0 5.0 0.00 0.00 0.00 100 1010.8
20260905235353 91 4 2.0 5.0 0.00 0.00 0.00 100 1010.9
20260905234853 91 351 3.0 5.0 0.00 0.00 0.00 100 1010.8
20260905234611 91 23 4.0 5.0 0.00 0.00 0.00 100 1010.9
20260905234353 91 23 4.0 5.0 0.00 0.00 0.00 100 1010.9
20260905233853 91 348 4.0 6.0 0.00 0.00 0.00 100 1010.9
20260905233353 91 350 3.0 8.0 0.00 0.00 0.00 100 1010.9
20260905233115 91 347 5.0 7.0 0.00 0.00 0.00 100 1010.8
20260905232853 91 347 5.0 7.0 0.00 0.00 0.00 100 1010.8
20260905232353 91 14 2.0 7.0 0.00 0.00 0.00 100 1010.5
20260905231853 91 21 3.0 8.0 0.00 0.00 0.00 100 1010.7
20260905231613 92 351 6.0 11.0 0.00 0.00 0.00 100 1010.9
20260905231353 92 351 6.0 11.0 0.00 0.00 0.00 100 1010.9
20260905231119 92 317 6.0 9.0 0.00 0.00 0.00 100 1010.9
20260905230853 92 317 6.0 9.0 0.00 0.00 0.00 100 1010.9
20260905230703 92 351 4.0 8.0 0.00 0.00 0.00 100 1010.9
20260905230353 92 351 4.0 8.0 0.00 0.00 0.00 100 1010.9
20260905225853 92 336 5.0 9.0 0.00 0.00 0.00 100 1011.0
20260905225651 92 1 7.0 10.0 0.00 0.00 0.00 100 1011.1
20260905225353 92 1 7.0 10.0 0.00 0.00 0.00 100 1011.1
20260905224853 92 331 5.0 9.0 0.00 0.00 0.00 100 1011.1
20260905224353 92 347 7.0 10.0 0.00 0.00 0.00 100 1011.0
20260905224156 92 334 4.0 12.0 0.00 0.00 0.00 100 1010.9
20260905223853 92 334 4.0 12.0 0.00 0.00 0.00 100 1010.9
20260905223353 92 299 0.0 10.0 0.00 0.00 0.00 100 1010.9
20260905222853 92 344 5.0 10.0 0.00 0.00 0.00 100 1011.0
20260905222658 92 323 8.0 11.0 0.00 0.00 0.00 100 1010.9
20260905222353 92 323 8.0 11.0 0.00 0.00 0.00 100 1010.9
20260905221853 92 347 7.0 11.0 0.00 0.00 0.00 100 1010.9
20260905221353 92 0 4.0 10.0 0.00 0.00 0.00 100 1011.0
20260905221158 92 337 6.0 13.0 0.00 0.00 0.00 100 1010.9
20260905220853 92 337 6.0 13.0 0.00 0.00 0.00 100 1010.9
20260905220713 93 357 3.0 11.0 0.00 0.00 0.00 100 1010.9
20260905220353 93 357 3.0 11.0 0.00 0.00 0.00 100 1010.9
20260905220204 93 15 6.0 9.0 0.00 0.00 0.00 100 1010.9
20260905215853 93 15 6.0 9.0 0.00 0.00 0.00 100 1010.9
20260905215630 93 16 3.0 10.0 0.00 0.00 0.00 100 1011.0
20260905215353 93 16 3.0 10.0 0.00 0.00 0.00 100 1011.0
20260905215112 93 350 8.0 12.0 0.00 0.00 0.00 100 1010.9
20260905214853 93 350 8.0 12.0 0.00 0.00 0.00 100 1010.9
20260905214353 93 352 9.0 12.0 0.00 0.00 0.00 100 1011.0
20260905213853 92 14 7.0 12.0 0.00 0.00 0.00 100 1011.0
20260905213643 92 348 8.0 11.0 0.00 0.00 0.00 100 1010.9
20260905213353 92 348 8.0 11.0 0.00 0.00 0.00 100 1010.9
20260905212853 93 7 5.0 11.0 0.00 0.00 0.00 100 1010.9
20260905212353 93 333 5.0 9.0 0.00 0.00 0.00 100 1010.9
20260905211853 92 15 6.0 11.0 0.00 0.00 0.00 100 1011.0
20260905211353 93 7 6.0 13.0 0.00 0.00 0.00 100 1011.0
20260905210853 93 337 10.0 11.0 0.00 0.00 0.00 100 1011.0
20260905210637 93 11 9.0 12.0 0.00 0.00 0.00 100 1011.0
20260905210353 93 11 9.0 12.0 0.00 0.00 0.00 100 1011.0
20260905205853 93 8 1.0 12.0 0.00 0.00 0.00 100 1011.0
20260905205353 93 354 9.0 11.0 0.00 0.00 0.00 100 1010.9
20260905204853 94 336 7.0 10.0 0.00 0.00 0.00 100 1010.8
20260905204353 94 334 6.0 8.0 0.00 0.00 0.00 100 1010.9
20260905203853 94 267 5.0 11.0 0.00 0.00 0.00 100 1010.8
20260905203353 94 334 3.0 10.0 0.00 0.00 0.00 100 1011.0
20260905202853 94 358 5.0 11.0 0.00 0.00 0.00 100 1011.1
20260905202353 95 25 6.0 11.0 0.00 0.00 0.00 100 1011.0
20260905201853 95 313 6.0 10.0 0.00 0.00 0.00 100 1011.1
20260905201353 94 315 1.0 7.0 0.00 0.00 0.00 100 1011.1
20260905201327 94 310 3.0 13.0 0.00 0.00 0.00 100 1011.1
20260905200853 94 310 3.0 13.0 0.00 0.00 0.00 100 1011.1
20260905200353 94 254 5.0 9.0 0.00 0.00 0.00 100 1011.1
20260905200147 94 316 6.0 11.0 0.00 0.00 0.00 100 1011.2
20260905195853 94 316 6.0 11.0 0.00 0.00 0.00 100 1011.2
20260905195800 93 355 4.0 13.0 0.00 0.00 0.00 100 1011.1
20260905195353 93 355 4.0 13.0 0.00 0.00 0.00 100 1011.1
20260905194853 93 340 8.0 11.0 0.00 0.00 0.00 100 1011.2
20260905194353 94 322 6.0 12.0 0.00 0.00 0.00 100 1010.9
20260905193853 94 7 10.0 11.0 0.00 0.00 0.00 100 1011.4
20260905193353 94 285 4.0 11.0 0.00 0.00 0.00 100 1011.3
20260905193155 95 358 3.0 9.0 0.00 0.00 0.00 100 1011.4
20260905192853 95 358 3.0 9.0 0.00 0.00 0.00 100 1011.4
20260905192353 94 350 8.0 10.0 0.00 0.00 0.00 100 1011.5
20260905191853 95 345 3.0 8.0 0.00 0.00 0.00 100 1011.2
20260905191717 94 354 3.0 8.0 0.00 0.00 0.00 100 1011.4
20260905191412 94 351 6.0 8.0 0.00 0.00 0.00 100 1011.3
20260905191353 94 354 3.0 8.0 0.00 0.00 0.00 100 1011.4
20260905190853 94 351 6.0 8.0 0.00 0.00 0.00 100 1011.3
20260905190353 94 334 7.0 10.0 0.00 0.00 0.00 100 1011.2
20260905190207 94 281 4.0 10.0 0.00 0.00 0.00 100 1011.3
20260905185853 94 281 4.0 10.0 0.00 0.00 0.00 100 1011.3
20260905185803 94 244 2.0 12.0 0.00 0.00 0.00 100 1011.3
20260905185435 94 265 4.0 10.0 0.00 0.00 0.00 100 1011.5
20260905185353 94 244 2.0 12.0 0.00 0.00 0.00 100 1011.3
20260905184853 94 265 4.0 10.0 0.00 0.00 0.00 100 1011.5
20260905184718 94 284 3.0 10.0 0.00 0.00 0.00 100 1011.5
20260905184353 94 284 3.0 10.0 0.00 0.00 0.00 100 1011.5
20260905183853 95 329 5.0 11.0 0.00 0.00 0.00 100 1011.6
20260905183713 95 305 3.0 7.0 0.00 0.00 0.00 100 1011.6
20260905183353 95 305 3.0 7.0 0.00 0.00 0.00 100 1011.6
20260905183339 95 0 1.0 6.0 0.00 0.00 0.00 100 1011.6
20260905182853 95 0 1.0 6.0 0.00 0.00 0.00 100 1011.6
20260905182759 95 202 2.0 9.0 0.00 0.00 0.00 100 1011.7
20260905182353 95 202 2.0 9.0 0.00 0.00 0.00 100 1011.7
20260905182243 94 277 3.0 10.0 0.00 0.00 0.00 100 1011.8
20260905181853 94 277 3.0 10.0 0.00 0.00 0.00 100 1011.8
20260905181715 95 248 0.0 6.0 0.00 0.00 0.00 100 1011.8
20260905181353 95 248 0.0 6.0 0.00 0.00 0.00 100 1011.8
20260905181159 94 213 1.0 9.0 0.00 0.00 0.00 100 1011.8
20260905180853 94 213 1.0 9.0 0.00 0.00 0.00 100 1011.8
20260905180719 94 331 4.0 8.0 0.00 0.00 0.00 100 1011.9
20260905180353 94 331 4.0 8.0 0.00 0.00 0.00 100 1011.9
20260905180125 94 299 7.0 12.0 0.00 0.00 0.00 100 1011.9
20260905175853 94 299 7.0 12.0 0.00 0.00 0.00 100 1011.9
20260905175353 94 355 6.0 9.0 0.00 0.00 0.00 100 1012.0
20260905174853 94 1 3.0 8.0 0.00 0.00 0.00 100 1011.9
20260905174717 95 331 4.0 9.0 0.00 0.00 0.00 100 1012.1
20260905174353 95 331 4.0 9.0 0.00 0.00 0.00 100 1012.1
20260905173853 96 309 3.0 5.0 0.00 0.00 0.00 100 1012.2
20260905173354 95 298 3.0 4.0 0.00 0.00 0.00 100 1012.2
20260905172853 94 43 3.0 11.0 0.00 0.00 0.00 100 1012.3
20260905172353 94 341 8.0 11.0 0.00 0.00 0.00 100 1012.3
20260905171853 95 30 4.0 9.0 0.00 0.00 0.00 100 1012.4
20260905171353 94 312 4.0 7.0 0.00 0.00 0.00 100 1012.4
20260905170853 94 12 2.0 12.0 0.00 0.00 0.00 100 1012.5
20260905170353 95 7 3.0 8.0 0.00 0.00 0.00 100 1012.5
20260905165853 94 254 0.0 8.0 0.00 0.00 0.00 100 1012.6
20260905165712 95 302 3.0 7.0 0.00 0.00 0.00 100 1012.6
20260905165353 95 302 3.0 7.0 0.00 0.00 0.00 100 1012.6
20260905164853 95 5 2.0 7.0 0.00 0.00 0.00 100 1012.7
20260905164353 94 293 3.0 4.0 0.00 0.00 0.00 100 1012.7
20260905163853 94 202 0.0 4.0 0.00 0.00 0.00 100 1012.8
20260905163353 94 295 2.0 11.0 0.00 0.00 0.00 100 1013.0
20260905162853 94 248 1.0 9.0 0.00 0.00 0.00 100 1013.0
20260905162742 94 350 6.0 6.0 0.00 0.00 0.00 100 1013.0
20260905162353 94 350 6.0 6.0 0.00 0.00 0.00 100 1013.0
20260905162248 94 12 2.0 6.0 0.00 0.00 0.00 100 1013.1
20260905161853 94 12 2.0 6.0 0.00 0.00 0.00 100 1013.1
20260905161353 95 303 1.0 5.0 0.00 0.00 0.00 100 1013.0
20260905161229 94 271 0.0 8.0 0.00 0.00 0.00 100 1013.1
20260905160853 94 271 0.0 8.0 0.00 0.00 0.00 100 1013.1
20260905160747 93 358 7.0 9.0 0.00 0.00 0.00 100 1013.0
20260905160353 93 358 7.0 9.0 0.00 0.00 0.00 100 1013.0
20260905155853 94 14 6.0 9.0 0.00 0.00 0.00 100 1013.2
20260905155632 95 320 7.0 7.0 0.00 0.00 0.00 100 1013.1
20260905155353 95 320 7.0 7.0 0.00 0.00 0.00 100 1013.1
20260905155157 95 302 0.0 5.0 0.00 0.00 0.00 100 1013.1
20260905154853 95 302 0.0 5.0 0.00 0.00 0.00 100 1013.1
20260905154353 94 172 0.0 4.0 0.00 0.00 0.00 100 1013.2
20260905153853 94 75 1.0 7.0 0.00 0.00 0.00 100 1013.2
20260905153353 94 23 5.0 6.0 0.00 0.00 0.00 100 1013.0